Tracking 29892 objects as of 21-Nov-2024
HD Live streaming from Space Station
objects crossing your sky now

STARLINK-1602

Track STARLINK-1602 now!
10-day predictions
STARLINK-1602 is classified as:


NORAD ID: 46121
Int'l Code: 2020-057E
Perigee: 442.1 km
Apogee: 444.0 km
Inclination: 53.1 °
Period: 93.3 minutes
Semi major axis: 6814 km
RCS: Unknown
Launch date: August 18, 2020
Source: United States (US)
Launch site: AIR FORCE EASTERN TEST RANGE (AFETR)
Your satellite tracking list
Your tracking list is empty




NASA's NSSDC Master Catalog

Two Line Element Set (TLE):
1 46121U 20057E   24325.91668981  .01209181  00000-0  24130-1 0  9995
2 46121  53.0557 261.3255 0001396 109.9186 257.7249 15.43464540235628
Source of the keplerian elements: AFSPC